Weather History for Gallivare, Sweden

Change the Weather History Date:

Tuesday, February 12, 2013

  Actual Average Record
Temperature  
Mean Temperature 12 °F -  
Max Temperature 23 °F - - ()
Min Temperature 3 °F - - ()
Degree Days  
Heating Degree Days 53    
Moisture  
Dew Point 12 °F    
Average Humidity 92    
Maximum Humidity 100    
Minimum Humidity 85    
Precipitation  
Precipitation 0.00 in - - ()
Sea Level Pressure  
Sea Level Pressure 30.35 in    
Wind  
Wind Speed 3 mph ()    
Max Wind Speed 7 mph    
Max Gust Speed -    
Visibility 5.4 miles    
Events Fog    
T = Trace of Precipitation, MM = Missing Value Source: Averaged Metar Reports

Daily Weather History Graph

Daily Weather History Graph

Search for Another Location

Airport:

Trip Planner

Search our weather history database for the weather conditions in past years. The results will help you decide how hot, cold, wet, or windy it might be!

Date:

Astronomy

Feb. 12, 2013 Rise Set
Actual Time 8:00 AM CET 3:42 PM CET
Civil Twilight 7:00 AM CET 4:43 PM CET
Nautical Twilight 5:56 AM CET 5:46 PM CET
Astronomical Twilight 4:54 AM CET 6:48 PM CET
Moon 7:22 AM CET (2/12) 8:04 PM CET (2/12)
Length of Visible Light 9h 42m
Length of Day
7h 42m
Waxing Crescent, 6% of the Moon is Illuminated
Feb 12
Waxing Crescent
Feb 17
First Quarter
Feb 25
Full
Mar 4
Last Quarter
Mar 11
New

Hourly Weather History & Observations

Time (CET) Temp. Windchill Dew Point Humidity Pressure Visibility Wind Dir Wind Speed Gust Speed Precip Events Conditions
12:20 AM 6.8 °F -0.1 °F 3.2 °F 85% 30.33 in 6.2 mi NW 3.5 mph - N/A   Unknown
12:50 AM 5.0 °F -4.1 °F 1.4 °F 85% 30.33 in 6.2 mi NW 4.6 mph - N/A   Unknown
1:20 AM 6.8 °F -2.0 °F 3.2 °F 85% 30.33 in 6.2 mi WNW 4.6 mph - N/A   Unknown
1:50 AM 5.0 °F -4.1 °F 1.4 °F 85% 30.33 in 6.2 mi WSW 4.6 mph - N/A   Unknown
2:20 AM 5.0 °F -2.1 °F 3.2 °F 92% 30.33 in 6.2 mi West 3.5 mph - N/A   Unknown
2:50 AM 5.0 °F -2.1 °F 3.2 °F 92% 30.33 in 6.2 mi West 3.5 mph - N/A   Unknown
3:20 AM 8.6 °F 0.1 °F 6.8 °F 92% 30.33 in 6.2 mi NW 4.6 mph - N/A   Unknown
3:50 AM 6.8 °F -2.0 °F 3.2 °F 85% 30.33 in 6.2 mi WNW 4.6 mph - N/A   Unknown
4:20 AM 5.0 °F -2.1 °F 3.2 °F 92% 30.33 in 6.2 mi West 3.5 mph - N/A   Unknown
4:50 AM 3.2 °F -4.2 °F 1.4 °F 92% 30.33 in - West 3.5 mph - N/A   Clear
5:20 AM 3.2 °F -4.2 °F -0.4 °F 85% 30.33 in - West 3.5 mph - N/A   Clear
5:50 AM 6.8 °F -4.8 °F 3.2 °F 85% 30.33 in - WNW 6.9 mph - N/A   Clear
6:20 AM 10.4 °F 0.8 °F 6.8 °F 85% 30.33 in - NW 5.8 mph - N/A   Clear
6:50 AM 6.8 °F -0.1 °F 3.2 °F 85% 30.33 in - WSW 3.5 mph - N/A   Clear
7:20 AM 8.6 °F 2.0 °F 5.0 °F 85% 30.33 in - West 3.5 mph - N/A   Clear
7:50 AM 8.6 °F 0.1 °F 6.8 °F 92% 30.33 in - West 4.6 mph - N/A   Clear
8:20 AM 8.6 °F 2.0 °F 6.8 °F 92% 30.33 in 6.2 mi West 3.5 mph - N/A   Partly Cloudy
8:50 AM 10.4 °F 2.2 °F 6.8 °F 85% 30.33 in 6.2 mi WSW 4.6 mph - N/A   Scattered Clouds
9:20 AM 12.2 °F 4.3 °F 10.4 °F 92% 30.36 in 6.2 mi West 4.6 mph - N/A   Overcast
9:50 AM 14.0 °F 8.2 °F 10.4 °F 86% 30.36 in 6.2 mi WSW 3.5 mph - N/A   Mostly Cloudy
10:20 AM 14.0 °F 6.5 °F 12.2 °F 93% 30.36 in 6.2 mi WNW 4.6 mph - N/A   Partly Cloudy
10:50 AM 15.8 °F 10.2 °F 14.0 °F 93% 30.36 in 6.2 mi WNW 3.5 mph - N/A   Scattered Clouds
11:20 AM 15.8 °F 8.6 °F 12.2 °F 86% 30.36 in 6.2 mi WSW 4.6 mph - N/A   Partly Cloudy
11:50 AM 17.6 °F 10.7 °F 14.0 °F 86% 30.36 in 6.2 mi NW 4.6 mph - N/A   Partly Cloudy
12:20 PM 17.6 °F 12.3 °F 15.8 °F 93% 30.36 in 6.2 mi WNW 3.5 mph - N/A   Unknown
12:50 PM 17.6 °F - 15.8 °F 93% 30.36 in 6.2 mi WSW 2.3 mph - N/A   Unknown
1:20 PM 17.6 °F 12.3 °F 15.8 °F 93% 30.36 in 6.2 mi West 3.5 mph - N/A   Partly Cloudy
1:50 PM 19.4 °F - 17.6 °F 93% 30.36 in 6.2 mi WNW 2.3 mph - N/A   Partly Cloudy
2:20 PM 21.2 °F - 19.4 °F 93% 30.36 in 6.2 mi West 1.2 mph - N/A   Partly Cloudy
2:50 PM 21.2 °F - 19.4 °F 93% 30.36 in 6.2 mi Calm Calm - N/A   Mostly Cloudy
3:20 PM 21.2 °F - 19.4 °F 93% 30.36 in 6.2 mi Calm Calm - N/A   Overcast
3:50 PM 19.4 °F - 17.6 °F 93% 30.36 in 6.2 mi Calm Calm - N/A   Overcast
4:20 PM 19.4 °F - 19.4 °F 100% 30.36 in 6.2 mi Calm Calm - N/A   Overcast
4:50 PM 19.4 °F - 19.4 °F 100% 30.36 in 6.2 mi Calm Calm - N/A   Overcast
5:20 PM 19.4 °F - 19.4 °F 100% 30.36 in 6.2 mi Variable 2.3 mph - N/A   Mostly Cloudy
5:50 PM 19.4 °F - 19.4 °F 100% 30.36 in 6.2 mi SSW 1.2 mph - N/A   Mostly Cloudy
6:20 PM 19.4 °F - 19.4 °F 100% 30.36 in 6.2 mi Calm Calm - N/A   Overcast
6:50 PM 19.4 °F - 19.4 °F 100% 30.36 in 6.2 mi Calm Calm - N/A   Overcast
7:20 PM 19.4 °F - 19.4 °F 100% 30.39 in 1.2 mi South 2.3 mph - N/A   Mist
7:50 PM 21.2 °F - 19.4 °F 93% 30.39 in 0.9 mi Variable 1.2 mph - N/A   Mist
8:20 PM 21.2 °F - 21.2 °F 100% 30.39 in 1.2 mi Calm Calm - N/A   Scattered Clouds
8:50 PM 21.2 °F - 21.2 °F 100% 30.39 in 0.9 mi Calm Calm - N/A   Mist
9:20 PM 21.2 °F - 21.2 °F 100% 30.39 in 0.6 mi Calm Calm - N/A Fog Light Freezing Fog
9:50 PM 23.0 °F - 21.2 °F 93% 30.39 in 1.1 mi Calm Calm - N/A   Mist